Location: Kerb�bon
(47.7970°N, 3.3487°W)
Time: 13:28:11
(UTC+00:00)

Cosmos 1933 Rocket - Pass Details

Date: 12 May 2021
Orbit: 606 x 630 km, 82.5° (Epoch: 18 June)

Event Time Altitude Azimuth Distance (km) Brightness Sun altitude
Rises 21:16:19 0° 351° (N) 2,878 8.0 -13.3°
Reaches altitude 10° 21:18:33 10° 354° (N) 1,969 7.0 -13.6°
Maximum altitude 21:22:54 75° 80° (E) 633 3.5 -14.0°
Enters shadow 21:25:43 21° 163° (SSE) 1,361 4.8 -14.3°
